Location: Newark
(44.2003°N, 3.2583°E)
Time: 19:11:36
(UTC+00:00)

SR - Pass Details

Date: 22 October 2019
Orbit: 573 x 882 km, 66.7° (Epoch: 21 November)

Event Time Altitude Azimuth Distance (km) Brightness Sun altitude
Rises 21:38:06 0° 220° (SW) 3,046 - -49.0°
Reaches altitude 10° 21:40:21 10° 223° (SW) 2,181 - -49.3°
Maximum altitude 21:45:19 64° 305° (NW) 838 - -49.9°
Drops below altitude 10° 21:50:47 10° 27° (NNE) 2,399 - -50.5°
Sets 21:53:22 0° 31° (NNE) 3,377 - -50.8°
